| time (UTC) | temp F | wind direction | speed knots | gust knots | rain 1hr in | rain 24hr in | rain mn in | humidity % | barometer mb |
| 20260508014017 | 66 | 339 | 0.9 | 4.3 | 0.00 | 0.00 | 0.00 | 45 | 1010.1 |
| 20260508013018 | 68 | 10 | 0.9 | 2.6 | 0.00 | 0.00 | 0.00 | 39 | 1010.1 |
| 20260508012017 | 68 | 351 | 1.7 | 4.3 | 0.00 | 0.00 | 0.00 | 38 | 1010.1 |
| 20260508011018 | 69 | 360 | 3.5 | 5.2 | 0.00 | 0.00 | 0.00 | 37 | 1010.1 |
| 20260508010038 | 70 | 18 | 4.3 | 7.8 | 0.00 | 0.00 | 0.00 | 36 | 1010.1 |
| 20260508005018 | 70 | 360 | 3.5 | 6.1 | 0.00 | 0.00 | 0.00 | 36 | 1010.1 |
| 20260508004018 | 70 | 15 | 3.5 | 7.0 | 0.00 | 0.00 | 0.00 | 36 | 1010.1 |
| 20260508003055 | 70 | 20 | 3.5 | 7.0 | 0.00 | 0.00 | 0.00 | 37 | 1010.1 |
| 20260508002019 | 70 | 23 | 5.2 | 7.8 | 0.00 | 0.00 | 0.00 | 36 | 1010.1 |
| 20260508001018 | 69 | 21 | 4.3 | 7.8 | 0.00 | 0.00 | 0.00 | 37 | 1010.0 |
| 20260508000019 | 69 | 360 | 2.6 | 5.2 | 0.00 | 0.00 | 0.00 | 36 | 1010.1 |
| 20260507235036 | 70 | 335 | 4.3 | 7.8 | 0.00 | 0.00 | 0.00 | 35 | 1010.0 |
| 20260507234036 | 70 | 332 | 7.0 | 11.3 | 0.00 | 0.00 | 0.00 | 34 | 1009.9 |
| 20260507233016 | 70 | 330 | 6.1 | 10.4 | 0.00 | 0.02 | 0.00 | 34 | 1010.0 |
| 20260507232017 | 70 | 326 | 7.0 | 11.3 | 0.00 | 0.02 | 0.00 | 35 | 1009.9 |
| 20260507231020 | 71 | 347 | 6.1 | 11.3 | 0.00 | 0.02 | 0.00 | 36 | 1009.9 |
| 20260507230020 | 70 | 5 | 3.5 | 7.0 | 0.00 | 0.02 | 0.00 | 38 | 1010.0 |
| 20260507225017 | 70 | 12 | 7.0 | 11.3 | 0.00 | 0.02 | 0.00 | 37 | 1009.8 |
| 20260507224017 | 71 | 31 | 4.3 | 8.7 | 0.00 | 0.02 | 0.00 | 37 | 1009.9 |
| 20260507223017 | 70 | 5 | 5.2 | 9.6 | 0.00 | 0.02 | 0.00 | 37 | 1010.0 |
| 20260507222017 | 70 | 337 | 6.1 | 11.3 | 0.00 | 0.02 | 0.00 | 37 | 1010.1 |
| 20260507221018 | 70 | 20 | 5.2 | 8.7 | 0.00 | 0.02 | 0.00 | 39 | 1010.1 |
| 20260507220018 | 69 | 26 | 4.3 | 8.7 | 0.00 | 0.02 | 0.00 | 40 | 1010.2 |
| 20260507215018 | 68 | 5 | 5.2 | 7.8 | 0.00 | 0.02 | 0.00 | 40 | 1010.3 |
| 20260507214021 | 67 | 40 | 5.2 | 9.6 | 0.00 | 0.02 | 0.00 | 40 | 1010.2 |
| 20260507213019 | 67 | 21 | 5.2 | 8.7 | 0.00 | 0.02 | 0.00 | 41 | 1010.4 |
| 20260507212016 | 68 | 31 | 5.2 | 10.4 | 0.00 | 0.02 | 0.00 | 41 | 1010.5 |
| 20260507211019 | 69 | 12 | 5.2 | 7.8 | 0.00 | 0.02 | 0.00 | 41 | 1010.7 |
| 20260507210019 | 67 | 351 | 4.3 | 7.8 | 0.00 | 0.02 | 0.00 | 43 | 1010.8 |
| 20260507205019 | 68 | 18 | 5.2 | 8.7 | 0.00 | 0.02 | 0.00 | 41 | 1010.8 |
| 20260507204016 | 66 | 4 | 3.5 | 7.8 | 0.00 | 0.02 | 0.00 | 44 | 1011.0 |
| 20260507203016 | 66 | 355 | 5.2 | 10.4 | 0.00 | 0.02 | 0.00 | 43 | 1010.9 |
| 20260507202039 | 67 | 11 | 6.1 | 8.7 | 0.00 | 0.02 | 0.00 | 44 | 1010.9 |
| 20260507201017 | 67 | 356 | 4.3 | 8.7 | 0.00 | 0.02 | 0.00 | 43 | 1011.0 |
| 20260507200017 | 68 | 344 | 4.3 | 7.8 | 0.00 | 0.02 | 0.00 | 42 | 1011.0 |
| 20260507195017 | 67 | 329 | 5.2 | 8.7 | 0.00 | 0.02 | 0.00 | 42 | 1011.2 |
| 20260507194017 | 67 | 351 | 3.5 | 7.0 | 0.00 | 0.02 | 0.00 | 44 | 1011.3 |
| 20260507193018 | 67 | 349 | 4.3 | 7.8 | 0.00 | 0.02 | 0.00 | 43 | 1011.3 |
| 20260507192020 | 67 | 251 | 2.6 | 7.8 | 0.00 | 0.02 | 0.00 | 42 | 1011.2 |
| 20260507191018 | 66 | 11 | 4.3 | 8.7 | 0.00 | 0.02 | 0.00 | 47 | 1011.2 |
| 20260507190058 | 65 | 353 | 2.6 | 8.7 | 0.00 | 0.02 | 0.00 | 47 | 1011.4 |
| 20260507185018 | 65 | 326 | 5.2 | 12.2 | 0.00 | 0.02 | 0.00 | 46 | 1011.3 |
| 20260507184038 | 65 | 81 | 3.5 | 7.0 | 0.00 | 0.02 | 0.00 | 46 | 1011.4 |
| 20260507183015 | 65 | 304 | 2.6 | 7.8 | 0.00 | 0.02 | 0.00 | 46 | 1011.6 |
| 20260507182039 | 64 | 286 | 4.3 | 7.8 | 0.00 | 0.02 | 0.00 | 47 | 1011.7 |
| 20260507181019 | 64 | 321 | 3.5 | 7.0 | 0.00 | 0.02 | 0.00 | 46 | 1011.7 |
| 20260507180019 | 64 | 20 | 2.6 | 7.0 | 0.00 | 0.02 | 0.00 | 49 | 1011.9 |
| 20260507175036 | 63 | 345 | 5.2 | 8.7 | 0.00 | 0.02 | 0.00 | 48 | 1012.1 |
| 20260507174036 | 62 | 334 | 6.1 | 8.7 | 0.00 | 0.02 | 0.00 | 48 | 1012.2 |
| 20260507173017 | 62 | 325 | 6.1 | 8.7 | 0.00 | 0.02 | 0.00 | 47 | 1012.2 |
| 20260507172021 | 62 | 326 | 6.1 | 10.4 | 0.00 | 0.02 | 0.00 | 49 | 1012.3 |
| 20260507171017 | 62 | 343 | 4.3 | 8.7 | 0.00 | 0.02 | 0.00 | 52 | 1012.4 |
| 20260507170017 | 63 | 343 | 5.2 | 8.7 | 0.00 | 0.02 | 0.00 | 50 | 1012.2 |
| 20260507165017 | 62 | 339 | 4.3 | 7.8 | 0.00 | 0.02 | 0.00 | 50 | 1012.1 |
| 20260507164017 | 62 | 349 | 5.2 | 9.6 | 0.00 | 0.02 | 0.00 | 48 | 1012.1 |
| 20260507163017 | 62 | 358 | 5.2 | 9.6 | 0.00 | 0.02 | 0.00 | 48 | 1012.0 |
| 20260507162017 | 63 | 17 | 2.6 | 6.1 | 0.00 | 0.02 | 0.00 | 46 | 1012.1 |
| 20260507161018 | 63 | 4 | 3.5 | 7.0 | 0.00 | 0.02 | 0.00 | 47 | 1012.1 |
| 20260507160018 | 62 | 330 | 4.3 | 7.0 | 0.00 | 0.02 | 0.00 | 48 | 1012.0 |
| 20260507155018 | 61 | 356 | 4.3 | 7.8 | 0.00 | 0.02 | 0.00 | 51 | 1012.1 |
| 20260507154038 | 60 | 12 | 4.3 | 8.7 | 0.00 | 0.02 | 0.00 | 51 | 1012.2 |
| 20260507153016 | 59 | 313 | 1.7 | 5.2 | 0.00 | 0.02 | 0.00 | 56 | 1012.3 |
| 20260507152019 | 57 | 9 | 2.6 | 4.3 | 0.00 | 0.02 | 0.00 | 60 | 1012.4 |
| 20260507151019 | 56 | 264 | 1.7 | 3.5 | 0.00 | 0.02 | 0.00 | 70 | 1012.4 |
| 20260507150016 | 54 | 270 | 1.7 | 3.5 | 0.00 | 0.02 | 0.00 | 70 | 1012.3 |
| 20260507145016 | 53 | 177 | 1.7 | 4.3 | 0.00 | 0.02 | 0.00 | 78 | 1012.3 |
| 20260507144020 | 52 | 193 | 1.7 | 2.6 | 0.00 | 0.02 | 0.00 | 76 | 1012.2 |
| 20260507143019 | 51 | 230 | 0.9 | 1.7 | 0.00 | 0.02 | 0.00 | 78 | 1012.1 |
| 20260507142037 | 48 | 320 | 0.0 | 0.9 | 0.00 | 0.02 | 0.00 | 86 | 1012.0 |
| 20260507141037 | 45 | 13 | 0.9 | 2.6 | 0.00 | 0.02 | 0.00 | 92 | 1012.0 |
| 20260507140017 | 43 | 50 | 0.9 | 1.7 | 0.00 | 0.02 | 0.00 | 97 | 1011.9 |
| 20260507135017 | 42 | 288 | 1.7 | 2.6 | 0.00 | 0.02 | 0.00 | 98 | 1011.9 |
| 20260507134020 | 41 | 224 | 1.7 | 4.3 | 0.00 | 0.02 | 0.00 | 99 | 1011.8 |
| 20260507133031 | 41 | 273 | 0.9 | 1.7 | 0.00 | 0.02 | 0.00 | 99 | 1011.7 |
| 20260507132017 | 41 | 357 | 1.7 | 1.7 | 0.00 | 0.02 | 0.00 | 100 | 1011.6 |
| 20260507131037 | 40 | 313 | 0.9 | 1.7 | 0.00 | 0.02 | 0.00 | 99 | 1011.4 |
| 20260507130017 | 40 | 75 | 0.9 | 1.7 | 0.00 | 0.02 | 0.00 | 99 | 1011.4 |
| 20260507125018 | 40 | 84 | 0.9 | 1.7 | 0.00 | 0.02 | 0.00 | 99 | 1011.5 |
| 20260507124018 | 40 | 347 | 1.7 | 1.7 | 0.00 | 0.02 | 0.00 | 99 | 1011.5 |
| 20260507123018 | 40 | 30 | 0.9 | 1.7 | 0.00 | 0.02 | 0.00 | 99 | 1011.6 |
| 20260507122019 | 40 | 272 | 0.9 | 1.7 | 0.00 | 0.02 | 0.00 | 99 | 1011.5 |
| 20260507121039 | 41 | 284 | 0.9 | 2.6 | 0.00 | 0.02 | 0.00 | 99 | 1011.4 |
| 20260507120019 | 41 | 56 | 0.9 | 1.7 | 0.00 | 0.02 | 0.00 | 99 | 1011.3 |
| 20260507115019 | 41 | 64 | 1.7 | 2.6 | 0.00 | 0.02 | 0.00 | 99 | 1011.3 |
| 20260507114019 | 41 | 31 | 0.9 | 2.6 | 0.00 | 0.02 | 0.00 | 98 | 1011.1 |
| 20260507113019 | 42 | 272 | 0.9 | 1.7 | 0.00 | 0.02 | 0.00 | 98 | 1011.0 |
| 20260507112200 | 43 | 41 | 1.7 | 2.6 | 0.00 | 0.02 | 0.00 | 96 | 1010.9 |
| 20260507111020 | 44 | 256 | 0.9 | 1.7 | 0.00 | 0.02 | 0.00 | 94 | 1010.9 |
| 20260507110020 | 43 | 268 | 0.9 | 2.6 | 0.00 | 0.02 | 0.00 | 93 | 1010.8 |
| 20260507105020 | 45 | 316 | 1.7 | 2.6 | 0.00 | 0.02 | 0.00 | 91 | 1010.7 |
| 20260507104020 | 44 | 41 | 0.9 | 2.6 | 0.00 | 0.02 | 0.00 | 92 | 1010.6 |
| 20260507103020 | 46 | 335 | 2.6 | 4.3 | 0.00 | 0.02 | 0.00 | 87 | 1010.5 |
| 20260507102020 | 46 | 77 | 1.7 | 4.3 | 0.00 | 0.02 | 0.00 | 88 | 1010.4 |
| 20260507101018 | 46 | 315 | 2.6 | 5.2 | 0.00 | 0.02 | 0.00 | 86 | 1010.4 |
| 20260507100039 | 46 | 330 | 0.9 | 2.6 | 0.00 | 0.02 | 0.00 | 88 | 1010.4 |
| 20260507095018 | 47 | 323 | 0.9 | 2.6 | 0.00 | 0.02 | 0.00 | 85 | 1010.3 |
| 20260507094019 | 48 | 350 | 0.9 | 2.6 | 0.00 | 0.02 | 0.00 | 84 | 1010.3 |
| 20260507093019 | 48 | 104 | 0.9 | 2.6 | 0.00 | 0.02 | 0.00 | 83 | 1010.3 |
| 20260507092019 | 48 | 339 | 1.7 | 5.2 | 0.00 | 0.02 | 0.00 | 84 | 1010.3 |
| 20260507091019 | 47 | 285 | 0.9 | 2.6 | 0.00 | 0.02 | 0.00 | 87 | 1010.4 |
| 20260507090019 | 47 | 143 | 0.9 | 2.6 | 0.00 | 0.02 | 0.00 | 86 | 1010.2 |
| 20260507085016 | 48 | 251 | 0.9 | 1.7 | 0.00 | 0.02 | 0.00 | 84 | 1010.3 |
| 20260507084040 | 49 | 284 | 0.9 | 2.6 | 0.00 | 0.02 | 0.00 | 80 | 1010.2 |
| 20260507083021 | 50 | 154 | 1.7 | 2.6 | 0.00 | 0.02 | 0.00 | 79 | 1010.2 |
| 20260507082020 | 51 | 292 | 0.9 | 3.5 | 0.00 | 0.02 | 0.00 | 75 | 1010.3 |
| 20260507081037 | 51 | 219 | 0.9 | 1.7 | 0.00 | 0.02 | 0.00 | 77 | 1010.3 |
| 20260507080017 | 52 | 208 | 0.9 | 3.5 | 0.00 | 0.02 | 0.00 | 76 | 1010.1 |
| 20260507075017 | 54 | 326 | 0.9 | 2.6 | 0.00 | 0.02 | 0.00 | 71 | 1010.0 |
| 20260507074018 | 55 | 29 | 0.0 | 1.7 | 0.00 | 0.02 | 0.00 | 71 | 1010.0 |
| 20260507073018 | 57 | 235 | 0.9 | 1.7 | 0.00 | 0.02 | 0.00 | 65 | 1010.0 |
| 20260507072018 | 59 | 286 | 0.0 | 1.7 | 0.00 | 0.02 | 0.00 | 60 | 1010.0 |
| 20260507071018 | 61 | 259 | 1.7 | 2.6 | 0.00 | 0.02 | 0.00 | 56 | 1009.9 |
| 20260507070019 | 62 | 342 | 2.6 | 6.1 | 0.00 | 0.02 | 0.00 | 51 | 1010.0 |
| 20260507065038 | 62 | 337 | 3.5 | 7.8 | 0.00 | 0.02 | 0.00 | 50 | 1010.0 |
| 20260507064019 | 62 | 354 | 3.5 | 6.1 | 0.00 | 0.02 | 0.00 | 50 | 1010.0 |
| 20260507063019 | 62 | 25 | 2.6 | 5.2 | 0.00 | 0.02 | 0.00 | 49 | 1009.8 |
| 20260507062039 | 62 | 133 | 2.6 | 6.1 | 0.00 | 0.02 | 0.00 | 47 | 1009.7 |
| 20260507061019 | 58 | 278 | 4.3 | 13.9 | 0.00 | 0.02 | 0.00 | 53 | 1009.7 |
| 20260507060039 | 54 | 307 | 3.5 | 8.7 | 0.00 | 0.02 | 0.00 | 70 | 1009.8 |
| 20260507055020 | 51 | 124 | 3.5 | 16.5 | 0.00 | 0.02 | 0.00 | 76 | 1009.8 |
| 20260507054057 | 50 | 168 | 0.9 | 4.3 | 0.00 | 0.02 | 0.00 | 86 | 1009.9 |
| 20260507053020 | 50 | 261 | 1.7 | 3.5 | 0.00 | 0.02 | 0.00 | 86 | 1009.9 |
| 20260507052020 | 50 | 338 | 1.7 | 2.6 | 0.00 | 0.02 | 0.00 | 85 | 1009.9 |
| 20260507051040 | 51 | 53 | 0.9 | 1.7 | 0.00 | 0.02 | 0.00 | 83 | 1009.9 |
| 20260507050017 | 52 | 5 | 0.9 | 2.6 | 0.00 | 0.02 | 0.00 | 80 | 1009.8 |
| 20260507045017 | 54 | 319 | 0.9 | 3.5 | 0.00 | 0.02 | 0.00 | 76 | 1009.9 |
| 20260507044041 | 54 | 335 | 0.9 | 1.7 | 0.00 | 0.02 | 0.00 | 74 | 1009.9 |
| 20260507043018 | 54 | 3 | 1.7 | 3.5 | 0.00 | 0.02 | 0.00 | 74 | 1009.9 |
| 20260507042018 | 54 | 330 | 2.6 | 6.1 | 0.00 | 0.02 | 0.00 | 76 | 1009.9 |
| 20260507041018 | 54 | 255 | 1.7 | 2.6 | 0.00 | 0.02 | 0.00 | 76 | 1009.8 |
| 20260507040018 | 55 | 305 | 0.9 | 2.6 | 0.00 | 0.02 | 0.00 | 72 | 1009.7 |
| 20260507035018 | 55 | 296 | 2.6 | 4.3 | 0.00 | 0.02 | 0.00 | 75 | 1009.7 |
| 20260507034019 | 55 | 1 | 1.7 | 2.6 | 0.00 | 0.02 | 0.00 | 72 | 1009.6 |
| 20260507033016 | 54 | 323 | 0.9 | 3.5 | 0.00 | 0.02 | 0.00 | 75 | 1009.6 |
| 20260507032018 | 55 | 287 | 0.9 | 1.7 | 0.00 | 0.02 | 0.00 | 76 | 1009.4 |
| 20260507031019 | 56 | 355 | 1.7 | 4.3 | 0.00 | 0.02 | 0.00 | 73 | 1009.4 |
| 20260507030019 | 57 | 260 | 0.9 | 2.6 | 0.00 | 0.02 | 0.00 | 71 | 1009.3 |
| 20260507025016 | 57 | 350 | 1.7 | 2.6 | 0.00 | 0.02 | 0.00 | 68 | 1009.3 |
| 20260507024100 | 59 | 257 | 0.9 | 2.6 | 0.00 | 0.02 | 0.00 | 69 | 1009.4 |
| 20260507023040 | 60 | 183 | 1.7 | 2.6 | 0.00 | 0.02 | 0.00 | 60 | 1009.4 |
| 20260507022019 | 61 | 235 | 0.9 | 2.6 | 0.00 | 0.02 | 0.00 | 60 | 1009.6 |
| 20260507021020 | 62 | 230 | 1.7 | 2.6 | 0.00 | 0.02 | 0.00 | 57 | 1009.6 |
| 20260507020018 | 63 | 305 | 0.0 | 1.7 | 0.00 | 0.02 | 0.00 | 53 | 1009.5 |
| 20260507015038 | 63 | 323 | 1.7 | 3.5 | 0.00 | 0.02 | 0.00 | 52 | 1009.5 |